Time,TemperatureF,DewpointF,PressureIn,WindDirection,WindDirectionDegrees,WindSpeedMPH,WindSpeedGustMPH,Humidity,HourlyPrecipIn,Conditions,Clouds,dailyrainin,SoftwareType,DateUTC
2013-01-08 00:04:00,51.3,41.0,29.98,NE,38,0.0,-999.0,69,-99.99,,,0.00,weatherlink.com 1.10,2013-01-08 06:04:00,
2013-01-08 00:19:00,51.3,42.0,29.98,NE,38,0.0,-999.0,70,-99.99,,,0.00,weatherlink.com 1.10,2013-01-08 06:19:00,
2013-01-08 00:34:00,51.3,42.0,29.98,NE,38,0.0,-999.0,71,-99.99,,,0.00,weatherlink.com 1.10,2013-01-08 06:34:00,
2013-01-08 00:49:00,51.3,43.0,29.97,NE,38,0.0,-999.0,72,-99.99,,,0.00,weatherlink.com 1.10,2013-01-08 06:49:00,
2013-01-08 01:04:00,51.3,43.0,29.96,NE,38,0.0,-999.0,72,-99.99,,,0.00,weatherlink.com 1.10,2013-01-08 07:04:00,
2013-01-08 01:19:00,51.1,43.0,29.96,NE,38,0.0,-999.0,74,-99.99,,,0.00,weatherlink.com 1.10,2013-01-08 07:19:00,
2013-01-08 01:34:00,51.0,43.0,29.95,NE,38,0.0,-999.0,75,-99.99,,,0.00,weatherlink.com 1.10,2013-01-08 07:34:00,
2013-01-08 01:49:00,50.8,44.0,29.96,NE,38,0.0,-999.0,76,-99.99,,,0.00,weatherlink.com 1.10,2013-01-08 07:49:00,
2013-01-08 02:04:00,50.8,44.0,29.96,NE,38,0.0,-999.0,78,-99.99,,,0.00,weatherlink.com 1.10,2013-01-08 08:04:00,
2013-01-08 02:19:00,50.2,45.0,29.96,NE,38,0.0,-999.0,82,-99.99,,,0.00,weatherlink.com 1.10,2013-01-08 08:19:00,
2013-01-08 02:34:00,49.8,46.0,29.96,NE,38,0.0,-999.0,85,-99.99,,,0.01,weatherlink.com 1.10,2013-01-08 08:34:00,
2013-01-08 02:49:00,49.2,46.0,29.95,NE,38,0.0,-999.0,88,-99.99,,,0.01,weatherlink.com 1.10,2013-01-08 08:49:00,
2013-01-08 03:04:00,48.9,46.0,29.94,NE,38,0.0,-999.0,89,-99.99,,,0.01,weatherlink.com 1.10,2013-01-08 09:04:00,
2013-01-08 03:19:00,48.5,46.0,29.93,NE,36,0.0,-999.0,90,-99.99,,,0.01,weatherlink.com 1.10,2013-01-08 09:19:00,
2013-01-08 03:34:00,48.3,46.0,29.93,NE,36,0.0,-999.0,91,-99.99,,,0.02,weatherlink.com 1.10,2013-01-08 09:34:00,
2013-01-08 03:49:00,48.2,46.0,29.93,NE,36,0.0,-999.0,92,-99.99,,,0.02,weatherlink.com 1.10,2013-01-08 09:49:00,
2013-01-08 04:04:00,48.0,46.0,29.93,NE,36,0.0,-999.0,92,-99.99,,,0.03,weatherlink.com 1.10,2013-01-08 10:04:00,
2013-01-08 04:19:00,47.9,46.0,29.93,NE,38,0.0,-999.0,92,-99.99,,,0.04,weatherlink.com 1.10,2013-01-08 10:19:00,
2013-01-08 04:34:00,47.6,46.0,29.93,NE,38,0.0,-999.0,93,-99.99,,,0.04,weatherlink.com 1.10,2013-01-08 10:34:00,
2013-01-08 04:49:00,47.6,46.0,29.92,NE,38,0.0,-999.0,93,-99.99,,,0.05,weatherlink.com 1.10,2013-01-08 10:49:00,
2013-01-08 05:04:00,47.4,46.0,29.91,NE,55,0.0,-999.0,93,-99.99,,,0.05,weatherlink.com 1.10,2013-01-08 11:04:00,
2013-01-08 05:19:00,47.4,46.0,29.90,SE,135,0.0,-999.0,94,-99.99,,,0.06,weatherlink.com 1.10,2013-01-08 11:19:00,
2013-01-08 05:34:00,47.4,46.0,29.90,ENE,58,0.0,-999.0,94,-99.99,,,0.06,weatherlink.com 1.10,2013-01-08 11:34:00,
2013-01-08 05:49:00,47.6,46.0,29.89,NNE,26,0.0,-999.0,94,-99.99,,,0.06,weatherlink.com 1.10,2013-01-08 11:49:00,
2013-01-08 06:04:00,47.7,46.0,29.90,NNE,26,0.0,-999.0,94,-99.99,,,0.06,weatherlink.com 1.10,2013-01-08 12:04:00,
2013-01-08 06:19:00,47.6,46.0,29.90,NNE,31,0.0,-999.0,94,-99.99,,,0.06,weatherlink.com 1.10,2013-01-08 12:19:00,
2013-01-08 06:34:00,47.6,46.0,29.92,NNE,31,0.0,-999.0,94,-99.99,,,0.06,weatherlink.com 1.10,2013-01-08 12:34:00,
2013-01-08 06:49:00,47.9,46.0,29.92,NNE,31,0.0,-999.0,94,-99.99,,,0.06,weatherlink.com 1.10,2013-01-08 12:49:00,
2013-01-08 07:04:00,47.9,46.0,29.91,NNE,31,0.0,-999.0,94,-99.99,,,0.06,weatherlink.com 1.10,2013-01-08 13:04:00,
2013-01-08 07:19:00,48.0,46.0,29.92,NNE,29,0.0,-999.0,94,-99.99,,,0.06,weatherlink.com 1.10,2013-01-08 13:19:00,
2013-01-08 07:34:00,48.2,47.0,29.93,NNE,29,0.0,-999.0,94,-99.99,,,0.06,weatherlink.com 1.10,2013-01-08 13:34:00,
2013-01-08 07:49:00,48.2,47.0,29.95,NNE,30,0.0,-999.0,94,-99.99,,,0.07,weatherlink.com 1.10,2013-01-08 13:49:00,
2013-01-08 08:04:00,48.3,47.0,29.95,NNE,30,0.0,-999.0,95,-99.99,,,0.07,weatherlink.com 1.10,2013-01-08 14:04:00,
2013-01-08 08:19:00,48.2,47.0,29.94,NNE,29,0.0,-999.0,95,-99.99,,,0.08,weatherlink.com 1.10,2013-01-08 14:19:00,
2013-01-08 08:34:00,48.3,47.0,29.93,NNE,30,0.0,-999.0,95,-99.99,,,0.08,weatherlink.com 1.10,2013-01-08 14:34:00,
2013-01-08 08:49:00,48.3,47.0,29.93,NNE,30,0.0,-999.0,95,-99.99,,,0.00,weatherlink.com 1.10,2013-01-08 14:49:00,
2013-01-08 09:05:00,48.5,47.0,29.94,NNE,29,0.0,-999.0,95,-99.99,,,0.00,weatherlink.com 1.10,2013-01-08 15:05:00,
2013-01-08 09:19:00,48.6,47.0,29.94,NNE,29,0.0,-999.0,95,-99.99,,,0.00,weatherlink.com 1.10,2013-01-08 15:19:00,
2013-01-08 09:34:00,48.6,47.0,29.94,NNE,29,0.0,-999.0,95,-99.99,,,0.00,weatherlink.com 1.10,2013-01-08 15:34:00,
2013-01-08 09:50:00,48.8,48.0,29.94,NNE,29,0.0,-999.0,95,-99.99,,,0.00,weatherlink.com 1.10,2013-01-08 15:50:00,
2013-01-08 10:04:00,49.1,48.0,29.95,NNE,29,0.0,-999.0,95,-99.99,,,0.00,weatherlink.com 1.10,2013-01-08 16:04:00,
2013-01-08 10:20:00,49.2,48.0,29.94,NNE,29,0.0,-999.0,95,-99.99,,,0.00,weatherlink.com 1.10,2013-01-08 16:20:00,
2013-01-08 10:35:00,49.4,48.0,29.93,NNE,29,0.0,-999.0,95,-99.99,,,0.00,weatherlink.com 1.10,2013-01-08 16:35:00,
2013-01-08 10:51:00,49.4,48.0,29.94,NNE,29,0.0,-999.0,95,-99.99,,,0.00,weatherlink.com 1.10,2013-01-08 16:51:00,
2013-01-08 11:05:00,49.2,48.0,29.93,NNE,31,0.0,-999.0,96,-99.99,,,0.00,weatherlink.com 1.10,2013-01-08 17:05:00,
2013-01-08 11:36:00,49.9,49.0,29.90,NNE,31,0.0,-999.0,96,-99.99,,,0.01,weatherlink.com 1.10,2013-01-08 17:36:00,
2013-01-08 11:51:00,50.2,49.0,29.89,NNE,31,0.0,-999.0,96,-99.99,,,0.03,weatherlink.com 1.10,2013-01-08 17:51:00,
2013-01-08 12:06:00,50.4,49.0,29.88,NNE,31,0.0,-999.0,96,-99.99,,,0.03,weatherlink.com 1.10,2013-01-08 18:06:00,
2013-01-08 12:22:00,50.8,50.0,29.87,NNE,31,0.0,-999.0,96,-99.99,,,0.04,weatherlink.com 1.10,2013-01-08 18:22:00,
2013-01-08 12:37:00,50.8,50.0,29.86,NNE,31,0.0,-999.0,96,-99.99,,,0.04,weatherlink.com 1.10,2013-01-08 18:37:00,
2013-01-08 12:51:00,51.1,50.0,29.85,NNE,31,0.0,-999.0,96,-99.99,,,0.04,weatherlink.com 1.10,2013-01-08 18:51:00,
2013-01-08 13:07:00,51.4,50.0,29.83,NNE,31,0.0,-999.0,96,-99.99,,,0.04,weatherlink.com 1.10,2013-01-08 19:07:00,
2013-01-08 13:22:00,51.6,51.0,29.82,NNE,31,0.0,-999.0,96,-99.99,,,0.04,weatherlink.com 1.10,2013-01-08 19:22:00,
2013-01-08 13:37:00,52.0,51.0,29.82,NNE,31,0.0,-999.0,96,-99.99,,,0.05,weatherlink.com 1.10,2013-01-08 19:37:00,
2013-01-08 13:51:00,52.2,51.0,29.82,NNE,31,0.0,-999.0,96,-99.99,,,0.05,weatherlink.com 1.10,2013-01-08 19:51:00,
2013-01-08 14:07:00,52.3,51.0,29.82,NNE,31,0.0,-999.0,96,-99.99,,,0.05,weatherlink.com 1.10,2013-01-08 20:07:00,
2013-01-08 14:22:00,52.2,51.0,29.81,NNE,31,0.0,-999.0,96,-99.99,,,0.05,weatherlink.com 1.10,2013-01-08 20:22:00,
2013-01-08 14:53:00,52.6,52.0,29.80,NNE,33,0.0,-999.0,96,-99.99,,,0.05,weatherlink.com 1.10,2013-01-08 20:53:00,
2013-01-08 15:08:00,52.9,52.0,29.81,NNE,33,0.0,-999.0,96,-99.99,,,0.06,weatherlink.com 1.10,2013-01-08 21:08:00,
2013-01-08 15:23:00,53.2,52.0,29.80,NNE,33,0.0,-999.0,96,-99.99,,,0.06,weatherlink.com 1.10,2013-01-08 21:23:00,
2013-01-08 15:38:00,53.3,52.0,29.81,NNE,33,0.0,-999.0,96,-99.99,,,0.07,weatherlink.com 1.10,2013-01-08 21:38:00,
2013-01-08 15:52:00,53.5,52.0,29.82,NNE,33,0.0,-999.0,96,-99.99,,,0.09,weatherlink.com 1.10,2013-01-08 21:52:00,
2013-01-08 16:08:00,53.5,52.0,29.81,NE,34,0.0,-999.0,96,-99.99,,,0.09,weatherlink.com 1.10,2013-01-08 22:08:00,
2013-01-08 16:23:00,53.8,53.0,29.81,NNE,33,0.0,-999.0,96,-99.99,,,0.10,weatherlink.com 1.10,2013-01-08 22:23:00,
2013-01-08 16:38:00,53.8,53.0,29.81,NE,34,0.0,-999.0,96,-99.99,,,0.10,weatherlink.com 1.10,2013-01-08 22:38:00,
2013-01-08 16:52:00,53.8,53.0,29.81,NE,34,0.0,-999.0,96,-99.99,,,0.10,weatherlink.com 1.10,2013-01-08 22:52:00,
2013-01-08 17:07:00,53.9,53.0,29.81,NE,34,0.0,-999.0,96,-99.99,,,0.10,weatherlink.com 1.10,2013-01-08 23:07:00,
2013-01-08 17:22:00,53.6,53.0,29.81,NE,34,0.0,-999.0,96,-99.99,,,0.10,weatherlink.com 1.10,2013-01-08 23:22:00,
2013-01-08 17:37:00,53.6,53.0,29.81,NE,34,0.0,-999.0,96,-99.99,,,0.10,weatherlink.com 1.10,2013-01-08 23:37:00,
2013-01-08 17:52:00,53.5,52.0,29.82,East,88,0.0,-999.0,96,-99.99,,,0.10,weatherlink.com 1.10,2013-01-08 23:52:00,
2013-01-08 18:07:00,53.6,53.0,29.83,East,88,0.0,-999.0,96,-99.99,,,0.11,weatherlink.com 1.10,2013-01-09 00:07:00,
2013-01-08 18:22:00,53.6,53.0,29.82,East,88,0.0,-999.0,96,-99.99,,,0.11,weatherlink.com 1.10,2013-01-09 00:22:00,
2013-01-08 18:37:00,53.8,53.0,29.83,East,88,0.0,-999.0,96,-99.99,,,0.11,weatherlink.com 1.10,2013-01-09 00:37:00,
2013-01-08 18:52:00,53.8,53.0,29.82,WSW,239,0.0,-999.0,96,-99.99,,,0.11,weatherlink.com 1.10,2013-01-09 00:52:00,
2013-01-08 19:07:00,53.9,53.0,29.82,West,263,0.0,-999.0,96,-99.99,,,0.11,weatherlink.com 1.10,2013-01-09 01:07:00,
2013-01-08 19:22:00,53.9,53.0,29.82,North,353,0.0,-999.0,96,-99.99,,,0.12,weatherlink.com 1.10,2013-01-09 01:22:00,
2013-01-08 19:38:00,53.9,53.0,29.82,SW,220,0.0,-999.0,96,-99.99,,,0.13,weatherlink.com 1.10,2013-01-09 01:38:00,
2013-01-08 19:53:00,53.8,53.0,29.83,SW,220,0.0,-999.0,96,-99.99,,,0.13,weatherlink.com 1.10,2013-01-09 01:53:00,
2013-01-08 20:08:00,53.6,53.0,29.83,SW,220,0.0,-999.0,96,-99.99,,,0.13,weatherlink.com 1.10,2013-01-09 02:08:00,
2013-01-08 20:23:00,53.6,53.0,29.84,WSW,256,0.0,-999.0,96,-99.99,,,0.13,weatherlink.com 1.10,2013-01-09 02:23:00,
2013-01-08 20:38:00,53.3,52.0,29.84,WNW,296,0.0,-999.0,96,-99.99,,,0.13,weatherlink.com 1.10,2013-01-09 02:38:00,
2013-01-08 20:53:00,53.1,52.0,29.86,West,276,0.0,-999.0,96,-99.99,,,0.13,weatherlink.com 1.10,2013-01-09 02:53:00,
2013-01-08 21:23:00,52.5,51.0,29.86,WNW,284,0.0,-999.0,96,-99.99,,,0.16,weatherlink.com 1.10,2013-01-09 03:23:00,
2013-01-08 21:38:00,52.3,51.0,29.86,West,269,0.0,-999.0,96,-99.99,,,0.16,weatherlink.com 1.10,2013-01-09 03:38:00,
2013-01-08 21:53:00,52.2,51.0,29.87,WNW,289,0.0,-999.0,96,-99.99,,,0.19,weatherlink.com 1.10,2013-01-09 03:53:00,
2013-01-08 22:08:00,51.9,51.0,29.89,NW,305,0.0,-999.0,96,-99.99,,,0.22,weatherlink.com 1.10,2013-01-09 04:08:00,
2013-01-08 22:23:00,51.7,51.0,29.89,NNW,334,4.0,-999.0,96,-99.99,,,0.25,weatherlink.com 1.10,2013-01-09 04:23:00,
2013-01-08 22:38:00,51.4,50.0,29.90,West,274,0.0,-999.0,96,-99.99,,,0.26,weatherlink.com 1.10,2013-01-09 04:38:00,
2013-01-08 22:53:00,51.0,50.0,29.89,West,267,0.0,-999.0,96,-99.99,,,0.27,weatherlink.com 1.10,2013-01-09 04:53:00,
2013-01-08 23:08:00,51.0,50.0,29.88,NW,310,0.0,-999.0,96,-99.99,,,0.28,weatherlink.com 1.10,2013-01-09 05:08:00,
2013-01-08 23:23:00,51.3,50.0,29.88,SSE,168,0.0,-999.0,96,-99.99,,,0.28,weatherlink.com 1.10,2013-01-09 05:23:00,
2013-01-08 23:38:00,51.7,51.0,29.88,WSW,237,0.0,-999.0,96,-99.99,,,0.28,weatherlink.com 1.10,2013-01-09 05:38:00,
2013-01-08 23:53:00,52.0,51.0,29.87,South,186,0.0,-999.0,96,-99.99,,,0.30,weatherlink.com 1.10,2013-01-09 05:53:00,